DECAYED

STARLINK-3537, 52088 (Decayed)

Orbit data source: Space-Track

STARLINK-3537, 52088 was a payload satellite owned by SpaceX/Seattle (US) in LEO that was launched on Sat, 19 Mar 2022 UTC via an FALCON 9 launch vehicle from the Air Force Eastern Test Range (AFETR). Payload-class satellites include a variety of spacecraft equipped with specific instruments for various scientific and technological missions. These include communications satellites like Starlink; space stations such as the ISS; scientific satellites like the Hubble; Earth observation satellites from companies like Planet Labs, Umbra, and HawkEye 360; GPS; miniature CubeSats for education and research; and military/defense satellites.

Not visible in the next 10 days
Identifier
52088, 2022-029A
Orbit
Decayed
Country
Flag of USUS
Related business
Manufacturer
SpaceX/Seattle
Mission
Decayed Commercial Communications
Bus & Motor
STARLINK, Unknown motor
Mass
297 kg wet, ~275 kg dry
Launch date (UTC)
2022-03-19 (4 years ago)
Launch vehicle
FALCON 9
Launch site
Air Force Eastern Test Range (AFETR)
Object type
Payload
Rocket body
Debris
Shape & HBR
Box + 1 Pan, 10.1 m
Radar Cross Section
13.562 m², Large (>1 m²)

Expand to show TLE details & history
Last TLE update: 10 months ago

TLE from 10 months ago
0 STARLINK-3537
1 52088U 22029A   25220.29390514  .08556410  12376-4  24213-3 0  9999
2 52088  53.1921 157.2521 0010330 234.7859 258.5213 16.44563908190815
Epoch: 2025-08-08T07:03Z
TLE epoch observation values (Epoch: 2025-08-08T07:03:13.404Z)
Latitude
35.83471°
Longitude
-118.098°
Altitude
157.774 km
Speed
7.816 km/s
True Right ascension
20h 19m 00s
True Declination
35° 39' 24"
Sunlit
Object was in full shadow at epoch
Visualization orbit readout
Latitude
Unknown
Longitude
Unknown
Altitude
Unknown
Speed
Unknown
Apparent Right ascension
Unknown
Apparent Declination
Unknown
Sunlit
N/A
Visualization observer readout
Local Sidereal Time
21:28:06
Azimuth
Unknown
Elevation
Unknown
Doppler factor
Unknown
Orbital elements
Apogee altitude
160.701 km
Perigee altitude
147.206 km
Semi-major axis
6,532.09 km
Eccentricity
0.00103
Inclination
53.1921°
RAAN
157.2521°
Arg. of periapsis
234.7859°
True anomaly
258.40532°
Mean anomaly
258.5213°
Eccentric anomaly
258.46331°
Mean motion
4.11117 °/min
Orbital period
87.57 mins
BSTAR
0.00024213
Loading maneuver chart data...
Computing Atmospheric mass density...
Loading historical data...
Loading historical data...
Loading historical data...
Loading historical data...
Loading historical data...
Loading historical data...
Loading historical data...

Documentation

Showing up to 5 results
|